Weather History for Holesov, Czech Republic

Change the Weather History Date:

Thursday, January 16, 2014

  Actual Average Record
Temperature  
Mean Temperature 35 °F -  
Max Temperature 42 °F - - ()
Min Temperature 28 °F - - ()
Degree Days  
Heating Degree Days 30    
Moisture  
Dew Point 33 °F    
Average Humidity 80    
Maximum Humidity 95    
Minimum Humidity 63    
Precipitation  
Precipitation 0.00 in - - ()
Sea Level Pressure  
Sea Level Pressure 29.90 in    
Wind  
Wind Speed 7 mph ()    
Max Wind Speed 16 mph    
Max Gust Speed -    
Visibility 10.5 miles    
Events      
T = Trace of Precipitation, MM = Missing Value Source: Averaged Metar Reports

Daily Weather History Graph

Daily Weather History Graph

Search for Another Location

Airport:

Trip Planner

Search our weather history database for the weather conditions in past years. The results will help you decide how hot, cold, wet, or windy it might be!

Date:

Astronomy

Jan. 16, 2014 Rise Set
Actual Time 7:39 AM CET 4:20 PM CET
Civil Twilight 7:02 AM CET 4:56 PM CET
Nautical Twilight 6:23 AM CET 5:36 PM CET
Astronomical Twilight 5:45 AM CET 6:14 PM CET
Moon 5:04 PM CET (1/16) 7:14 AM CET (1/16)
Length of Visible Light 9h 53m
Length of Day
8h 41m
Full, 100% of the Moon is Illuminated
Jan 16
Full
Jan 24
Last Quarter
Jan 30
New
Feb 6
First Quarter
Feb 15
Full

Hourly Weather History & Observations

Time (CET) Temp. Dew Point Humidity Pressure Visibility Wind Dir Wind Speed Gust Speed Precip Events Conditions
12:00 AM 35 °F 33 °F 89% 29.96 in 7 mi ESE 4.5 mph - -   Mostly Cloudy
1:00 AM 33 °F 32 °F 94% 29.96 in 5 mi ESE 4.5 mph - -   Mist
2:00 AM 31 °F 30 °F 95% 29.97 in 3 mi SE 6.7 mph - -   Mist
3:00 AM 33 °F 32 °F 95% 29.97 in 6 mi ESE 6.7 mph - -   Mist
4:00 AM 31 °F 29 °F 88% 29.98 in 7 mi ESE 4.5 mph - -   Clear
5:00 AM 30 °F 29 °F 93% 29.97 in 4 mi SE 6.7 mph - -   Mist
6:00 AM 31 °F 30 °F 93% 29.96 in 7 mi ESE 6.7 mph - -   Clear
7:00 AM 32 °F 30 °F 91% 29.95 in 9 mi SE 6.7 mph - -   Partly Cloudy
8:00 AM 33 °F 30 °F 86% 29.95 in 16 mi SE 11.2 mph - -   Partly Cloudy
9:00 AM 36 °F 31 °F 76% 29.94 in 19 mi ESE 11.2 mph - -   Mostly Cloudy
10:00 AM 38 °F 33 °F 74% 29.94 in 19 mi SE 8.9 mph - -   Mostly Cloudy
11:00 AM 40 °F 33 °F 69% 29.94 in 16 mi SE 8.9 mph - -   Mostly Cloudy
12:00 PM 42 °F 34 °F 63% 29.90 in 16 mi SE 11.2 mph - -   Partly Cloudy
1:00 PM 43 °F 36 °F 67% 29.88 in 16 mi SSE 13.4 mph - -   Overcast
2:00 PM 43 °F 35 °F 66% 29.88 in 16 mi South 15.7 mph - -   Mostly Cloudy
3:00 PM 42 °F 35 °F 69% 29.87 in 16 mi South 11.2 mph - -   Partly Cloudy
4:00 PM 42 °F 35 °F 69% 29.86 in 9 mi SE 8.9 mph - -   Mostly Cloudy
5:00 PM 39 °F 34 °F 75% 29.86 in 9 mi SE 6.7 mph - -   Scattered Clouds
6:00 PM 38 °F 34 °F 81% 29.85 in 9 mi SE 8.9 mph - -   Partly Cloudy
7:00 PM 38 °F 34 °F 80% 29.85 in 9 mi SE 8.9 mph - -   Partly Cloudy
8:00 PM 39 °F 35 °F 80% 29.85 in 9 mi SE 8.9 mph - -   Mostly Cloudy
9:00 PM 40 °F 35 °F 76% 29.83 in 8 mi SE 8.9 mph - -   Mostly Cloudy
10:00 PM 41 °F 35 °F 71% 29.81 in 9 mi SE 11.2 mph - -   Mostly Cloudy
11:00 PM 41 °F 35 °F 73% 29.79 in 9 mi SE 13.4 mph - -   Mostly Cloudy